Weather in Myroliubiv

Ukraine / Zhytomyr Region     51°14′57″N   28°07′10″E
temp.,
°C
wind,
m/s
gust,
m/s
humid.,
%
clouds,
%
prec.,
mm/h
press.,
hPa
HPBL,
m
21 june, mon
mon2100:00+20e3108797 0.0 1015322
03:00+18e269861 0.0 1015154
06:00+18ene2697100 0.0 1014176
09:00+24e466812 0.0 1013683
12:00+28ese47481 0.0 10121386
15:00+29se45475 0.0 10121670
18:00+28se3458100 0.1 10111327
21:00+23s2384100 0.3 101266
22 june, tue
tue2200:00+20se259366 0.0 101299
03:00+19sse22975 0.0 101335
06:00+19se24950 0.0 101398
09:00+25se356911 0.0 1013549
12:00+29se3557100 0.0 10131385
15:00+30sse46438 0.0 10131483
18:00+29se455130 0.0 10131244
21:00+22ese23827 0.0 101455
23 june, wed
wed2300:00+19se27904 0.0 1014135
03:00+19se25950 0.0 1015108
06:00+19ese248879 0.0 1015100
09:00+25se24658 0.0 1016445
12:00+29se34455 0.0 10151062
15:00+32ese24365 0.0 10151820
18:00+32ese23405 0.0 10141776
21:00+24se22775 0.0 101520
24 june, thu
thu2400:00+21ese24915 0.0 101668
03:00+20ese2397100 0.2 101652
06:00+20ese259699 0.0 1016121
09:00+26se246912 0.0 1016486
12:00+29se345199 0.0 10161206
15:00+31s344514 0.0 10161701
18:00+30s33515 0.0 10151341
21:00+24ssw117572 0.1 101511
25 june, fri
fri2500:00+22sse1184100 1.1 101511
03:00+21se2289100 2.2 101518
06:00+21se239155 0.2 101471
09:00+24sse24846 0.9 1015286
12:00+30sse4556100 0.0 10141302
15:00+30sse454777 0.0 10141345
18:00+28se3564100 0.1 1013494
21:00+24s39814 0.2 1013256